Wright-Patt AFB, OH

4:58 AM EDT on April 29, 2017 (GMT -0400)
Wright-Patterson Air Force Base

Weather History for KFFO - October, 2011

Change the Weather History Date:

Tuesday, October 18, 2011

  Actual Average Record
Temperature  
Mean Temperature 50 °F -  
Max Temperature 54 °F 61 °F 81 °F (2016)
Min Temperature 46 °F 40 °F 25 °F (2015)
Degree Days  
Heating Degree Days 14    
Moisture  
Dew Point 43 °F    
Average Humidity 77    
Maximum Humidity 93    
Minimum Humidity 62    
Precipitation  
Precipitation 0.07 in - - ()
Sea Level Pressure  
Sea Level Pressure 29.79 in    
Wind  
Wind Speed 7 mph (North)    
Max Wind Speed 23 mph    
Max Gust Speed 28 mph    
Visibility 10 miles    
Events Rain , Thunderstorm    
Averages and records for this station are not official NWS values.
T = Trace of Precipitation, MM = Missing Value Source: NWS Daily Summary

Daily Weather History Graph

Daily Weather History Graph

Search for Another Location

Airport or City:

Trip Planner

Search our weather history database for the weather conditions in past years. The results will help you decide how hot, cold, wet, or windy it might be!

Date:

Astronomy

Oct. 18, 2011 Rise Set
Actual Time 7:49 AM EDT 6:52 PM EDT
Civil Twilight 7:22 AM EDT 7:20 PM EDT
Nautical Twilight 6:50 AM EDT 7:51 PM EDT
Astronomical Twilight 6:19 AM EDT 8:22 PM EDT
Moon 11:33 PM EDT (10/18) 1:39 PM EDT (10/18)
Length of Visible Light 11h 58m
Length of Day
11h 03m
Waning Gibbous, 65% of the Moon is Illuminated
Oct 18
Waning Gibbous
Oct 19
Last Quarter
Oct 26
New
Nov 2
First Quarter
Nov 10
Full

Hourly Weather History & Observations

Time (EDT) Temp. Dew Point Humidity Pressure Visibility Wind Dir Wind Speed Gust Speed Precip Events Conditions
12:55 AM 49.3 °F 43.3 °F 80% 29.89 in 10.0 mi SSW 4.6 mph - 0.00 in Rain Light Rain
1:13 AM 50.0 °F 42.8 °F 76% 29.88 in 10.0 mi NW 3.5 mph - N/A   Overcast
1:23 AM 50.0 °F 42.8 °F 76% 29.88 in 10.0 mi North 4.6 mph - N/A   Light Drizzle
1:43 AM 50.0 °F 42.8 °F 76% 29.86 in 10.0 mi NNW 5.8 mph - N/A   Overcast
1:55 AM 49.8 °F 43.3 °F 78% 29.87 in 10.0 mi Variable 4.6 mph - 0.00 in   Overcast
2:55 AM 49.3 °F 40.1 °F 71% 29.85 in 10.0 mi WNW 4.6 mph - N/A   Overcast
3:55 AM 48.9 °F 40.8 °F 74% 29.85 in 10.0 mi NW 3.5 mph - N/A   Overcast
4:55 AM 48.9 °F 40.5 °F 73% 29.84 in 10.0 mi West 3.5 mph - N/A   Overcast
5:55 AM 48.9 °F 40.3 °F 72% 29.84 in 10.0 mi Calm Calm - N/A   Overcast
6:55 AM 48.7 °F 40.6 °F 74% 29.85 in 10.0 mi SSW 3.5 mph - N/A   Overcast
7:55 AM 48.9 °F 41.4 °F 75% 29.83 in 10.0 mi Calm Calm - N/A   Overcast
8:55 AM 49.3 °F 41.9 °F 76% 29.85 in 10.0 mi NW 3.5 mph - N/A   Overcast
9:55 AM 50.0 °F 40.3 °F 69% 29.83 in 10.0 mi Calm Calm - N/A   Overcast
10:55 AM 51.3 °F 41.2 °F 68% 29.83 in 10.0 mi North 3.5 mph - N/A   Overcast
11:55 AM 52.0 °F 42.3 °F 69% 29.82 in 10.0 mi North 5.8 mph - N/A   Overcast
12:55 PM 54.7 °F 42.1 °F 62% 29.79 in 10.0 mi NNE 9.2 mph - N/A   Overcast
1:24 PM 53.6 °F 42.8 °F 67% 29.80 in 10.0 mi NNW 11.5 mph - N/A Rain Light Rain Showers
1:37 PM 53.6 °F 42.8 °F 67% 29.79 in 10.0 mi North 10.4 mph - N/A   Mostly Cloudy
1:55 PM 52.9 °F 41.7 °F 66% 29.77 in 10.0 mi NNE 12.7 mph - 0.00 in   Mostly Cloudy
2:03 PM 53.6 °F 42.8 °F 67% 29.87 in 10.0 mi West 23.0 mph 27.6 mph N/A Rain , Thunderstorm Light Thunderstorms and Rain
2:13 PM 51.8 °F 42.8 °F 71% 29.77 in 3.0 mi North 16.1 mph 20.7 mph N/A Rain , Thunderstorm Thunderstorms and Rain
2:30 PM 50.0 °F 44.6 °F 82% 29.75 in 10.0 mi NNE 9.2 mph - N/A Rain , Thunderstorm Light Rain Showers
2:38 PM 50.0 °F 44.6 °F 82% 29.78 in 10.0 mi NNW 8.1 mph - N/A   Mostly Cloudy
2:55 PM 50.5 °F 45.9 °F 84% 29.74 in 10.0 mi NNE 12.7 mph - 0.03 in   Overcast
3:55 PM 52.2 °F 43.9 °F 73% 29.75 in 10.0 mi North 11.5 mph - N/A   Overcast
4:55 PM 51.3 °F 42.8 °F 73% 29.74 in 10.0 mi NNE 12.7 mph - N/A   Overcast
5:55 PM 51.6 °F 40.6 °F 66% 29.73 in 10.0 mi NNE 10.4 mph - N/A   Overcast
6:52 PM 50.0 °F 42.8 °F 76% 29.74 in 10.0 mi NNE 12.7 mph - N/A Rain Light Rain Showers
6:56 PM 50.5 °F 42.8 °F 75% 29.73 in 10.0 mi North 11.5 mph - 0.00 in Rain Light Rain Showers
7:01 PM 50.0 °F 42.8 °F 76% 29.73 in 10.0 mi North 10.4 mph - N/A   Overcast
7:27 PM 50.0 °F 44.6 °F 82% 29.75 in 10.0 mi North 10.4 mph - N/A Rain Light Rain Showers
7:55 PM 49.3 °F 45.9 °F 88% 29.77 in 10.0 mi North 9.2 mph - 0.00 in Rain Light Rain Showers
8:40 PM 48.2 °F 46.4 °F 93% 29.73 in 10.0 mi North 11.5 mph - N/A   Overcast
8:44 PM 48.2 °F 46.4 °F 93% 29.73 in 10.0 mi North 10.4 mph - N/A   Light Drizzle
8:55 PM 48.0 °F 45.5 °F 91% 29.74 in 10.0 mi North 9.2 mph - 0.03 in   Light Drizzle
9:55 PM 47.3 °F 45.1 °F 92% 29.71 in 10.0 mi NNE 12.7 mph - 0.01 in   Overcast
10:12 PM 48.2 °F 44.6 °F 87% 29.71 in 10.0 mi NNE 9.2 mph - N/A   Light Drizzle
10:26 PM 48.2 °F 44.6 °F 87% 29.70 in 10.0 mi NNE 13.8 mph - N/A   Scattered Clouds
10:55 PM 47.5 °F 45.0 °F 91% 29.67 in 10.0 mi North 12.7 mph - 0.00 in   Overcast
11:55 PM 46.9 °F 44.1 °F 90% 29.65 in 10.0 mi North 11.5 mph - N/A   Overcast